Back to catalog

IUS R/B(2)

AliveGEO
NORAD 23615·ROCKET BODY·🇺🇸 United States

Launched Jul 13, 1995 from Cape Canaveral Space Force Station

Loading…

TLE

FreshSource: Space-Track

Epoch: Aug 28, 2026, 02:32 UTC

1 23615U 95035D   26240.10602301 -.00000183  00000-0  00000+0 0  9998
2 23615  15.6073 341.0353 0009555 187.3626 179.2130  1.00483044114134

Track IUS R/B(2) in real time with AllMySat

Download on the App Store